Everett, WA

9:57 PM PST on December 13, 2019 (GMT -0800)
Snohomish County

Weather History for KPAE - July, 2019

Change the Weather History Date:

Wednesday, July 17, 2019

  Actual Average Record
Temperature  
Mean Temperature 62 °F -  
Max Temperature 69 °F 72 °F 86 °F (1984)
Min Temperature 55 °F 54 °F 42 °F (1950)
Degree Days  
Heating Degree Days 3    
Growing Degree Days 12 (Base 50)    
Moisture  
Dew Point 56 °F    
Average Humidity 82    
Maximum Humidity 100    
Minimum Humidity 68    
Precipitation  
Precipitation 0.17 in - - ()
Sea Level Pressure  
Sea Level Pressure 29.90 in    
Wind  
Wind Speed 10 mph (South)    
Max Wind Speed 21 mph    
Max Gust Speed 30 mph    
Visibility 9 miles    
Events Fog , Rain    
Averages and records for this station are not official NWS values.
T = Trace of Precipitation, MM = Missing Value Source: NWS Daily Summary

Daily Weather History Graph

Daily Weather History Graph

Search for Another Location

Airport or City:

Astronomy

Jul. 17, 2019 Rise Set
Actual Time 5:27 AM PDT 9:02 PM PDT
Civil Twilight 4:48 AM PDT 9:41 PM PDT
Nautical Twilight 3:56 AM PDT 10:32 PM PDT
Astronomical Twilight 2:45 AM PDT 11:43 PM PDT
Moon 9:52 PM PDT (7/17) 6:05 AM PDT (7/17)
Length of Visible Light 16h 52m
Length of Day
15h 34m
Full, 99% of the Moon is Illuminated
Jul 17
Full
Jul 24
Last Quarter
Jul 31
New
Aug 7
First Quarter
Aug 15
Full

Hourly Weather History & Observations

Time (PDT) Temp. Dew Point Humidity Pressure Visibility Wind Dir Wind Speed Gust Speed Precip Events Conditions
12:53 AM 63.0 °F 53.1 °F 70% 29.94 in 10.0 mi East 3.5 mph - N/A   Mostly Cloudy
1:09 AM 63.0 °F 53.1 °F 70% 29.95 in 10.0 mi Calm Calm - N/A   Overcast
1:36 AM 63.0 °F 53.1 °F 70% 29.94 in 10.0 mi ESE 4.6 mph - N/A   Overcast
1:53 AM 63.0 °F 53.1 °F 70% 29.93 in 10.0 mi Variable 3.5 mph - N/A   Overcast
2:53 AM 63.0 °F 54.0 °F 72% 29.91 in 10.0 mi South 12.7 mph - N/A   Overcast
3:53 AM 62.1 °F 54.0 °F 75% 29.90 in 10.0 mi SSE 17.3 mph - N/A   Mostly Cloudy
4:53 AM 62.1 °F 54.0 °F 75% 29.89 in 10.0 mi South 13.8 mph 23.0 mph 0.00 in   Overcast
5:31 AM 62.1 °F 55.0 °F 78% 29.90 in 10.0 mi South 19.6 mph 26.5 mph 0.00 in Rain Light Rain
5:43 AM 61.0 °F 55.0 °F 81% 29.90 in 10.0 mi South 13.8 mph 21.9 mph 0.00 in Rain Light Rain
5:53 AM 61.0 °F 55.0 °F 81% 29.89 in 10.0 mi South 15.0 mph 24.2 mph 0.00 in Rain Light Rain
6:53 AM 59.0 °F 55.9 °F 90% 29.90 in 10.0 mi SSE 17.3 mph - 0.03 in Rain Light Rain
7:53 AM 60.1 °F 55.9 °F 86% 29.89 in 10.0 mi SSE 15.0 mph 23.0 mph 0.00 in   Overcast
8:53 AM 61.0 °F 55.9 °F 83% 29.89 in 10.0 mi SSE 17.3 mph 26.5 mph 0.00 in Rain Light Rain
9:53 AM 61.0 °F 55.0 °F 81% 29.88 in 10.0 mi SSE 18.4 mph 26.5 mph 0.00 in   Overcast
10:09 AM 62.1 °F 55.0 °F 78% 29.87 in 10.0 mi SSE 20.7 mph 27.6 mph N/A   Overcast
10:53 AM 62.1 °F 55.9 °F 80% 29.87 in 10.0 mi SSE 17.3 mph 27.6 mph N/A   Overcast
11:28 AM 64.9 °F 55.0 °F 70% 29.87 in 10.0 mi South 18.4 mph 26.5 mph N/A   Overcast
11:53 AM 64.0 °F 55.0 °F 73% 29.87 in 10.0 mi South 16.1 mph 24.2 mph 0.00 in Rain Light Rain
12:53 PM 68.0 °F 59.0 °F 73% 29.86 in 10.0 mi South 16.1 mph 25.3 mph 0.01 in   Overcast
1:53 PM 66.9 °F 57.0 °F 70% 29.88 in 10.0 mi South 17.3 mph 28.8 mph N/A   Mostly Cloudy
2:00 PM 66.9 °F 57.0 °F 70% 29.88 in 10.0 mi SSW 19.6 mph 26.5 mph N/A   Overcast
2:53 PM 69.1 °F 57.9 °F 68% 29.88 in 10.0 mi South 19.6 mph 28.8 mph 0.00 in   Overcast
3:53 PM 68.0 °F 57.9 °F 70% 29.88 in 10.0 mi SSW 20.7 mph 29.9 mph N/A   Overcast
4:53 PM 68.0 °F 57.9 °F 70% 29.88 in 10.0 mi South 16.1 mph 25.3 mph N/A   Overcast
5:29 PM 62.1 °F 57.0 °F 84% 29.88 in 10.0 mi WSW 9.2 mph - N/A   Overcast
5:53 PM 63.0 °F 59.0 °F 87% 29.88 in 10.0 mi WSW 8.1 mph - N/A   Overcast
6:53 PM 61.0 °F 59.0 °F 93% 29.88 in 10.0 mi North 4.6 mph - N/A   Overcast
7:16 PM 62.1 °F 59.0 °F 90% 29.89 in 10.0 mi Calm Calm - N/A   Overcast
7:28 PM 63.0 °F 59.0 °F 87% 29.89 in 10.0 mi SSW 6.9 mph - N/A   Overcast
7:53 PM 63.0 °F 57.9 °F 84% 29.89 in 10.0 mi Variable 3.5 mph - N/A   Overcast
8:18 PM 59.0 °F 57.9 °F 96% 29.89 in 0.5 mi North 8.1 mph - 0.01 in Fog , Rain Light Rain
8:53 PM 57.9 °F 57.0 °F 97% 29.90 in 1.2 mi NNW 4.6 mph - 0.05 in Rain Light Rain
9:00 PM 57.0 °F 57.0 °F 100% 29.90 in 3.0 mi Variable 5.8 mph - 0.00 in Rain Light Rain
9:53 PM 57.0 °F 55.9 °F 96% 29.90 in 2.5 mi Variable 3.5 mph - 0.06 in Rain Rain
10:06 PM 57.0 °F 55.9 °F 96% 29.91 in 5.0 mi NNW 4.6 mph - 0.00 in Rain Light Rain
10:39 PM 57.0 °F 55.9 °F 96% 29.91 in 5.0 mi Variable 6.9 mph - 0.01 in Rain Light Rain
10:53 PM 57.0 °F 55.9 °F 96% 29.91 in 9.0 mi NNW 6.9 mph - 0.01 in   Overcast
11:28 PM 57.0 °F 55.0 °F 93% 29.92 in 8.0 mi North 5.8 mph - 0.00 in Rain Light Rain
11:41 PM 55.9 °F 55.0 °F 97% 29.92 in 5.0 mi NNE 5.8 mph - 0.00 in Rain Light Rain
11:53 PM 55.9 °F 55.0 °F 97% 29.93 in 4.0 mi North 5.8 mph - 0.01 in Rain Light Rain